This demonstration page uses our WeatherBlox Daily Observations layout. Learn more.

Left ArrowRight Arrow

Hourly Observations for February 21, 2015

Temp ( °F °C ) Dew Point ( °F °C ) Humidity (%) Winds ( mph kmh ) Pressure ( in mb ) Visibility ( mi km ) Precip ( " mm )
12:53 am 00:53 Cloudy 20 -6.7 6 -14.4 55 55 E 5 7 30.11 1020 10 16.0934 N/A
1:53 am 01:53 Cloudy with Light Snow 21 -6.1 8 -13.3 57 57 E 5 7 30.08 1019 9 14.48406 N/A
2:36 am 02:36 Cloudy with Light Snow 21 -6.1 12 -11.1 68 68 N N/A 30.12 1020 1.75 2.816345 0.02 0.508
2:44 am 02:44 Cloudy with Light Snow 21 -6.1 14 -10 74 74 N N/A 30.12 1020 1.25 2.011675 0.02 0.508
2:53 am 02:53 Cloudy with Light Snow 20 -6.7 15 -9.4 81 81 N N/A 30.07 1018 1.25 2.011675 0.03 0.762
3:13 am 03:13 Mostly Cloudy with Light Snow 20 -6.7 17 -8.3 89 89 E 3 6 30.09 1019 0.75 1.207005 0.02 0.508
3:37 am 03:37 Mostly Cloudy with Snow 20 -6.7 18 -7.8 92 92 E 3 6 30.06 1018 0.5 0.80467 0.07 1.778
3:50 am 03:50 Mostly Cloudy with Light Snow 19 -7 18 -8 93 93 N N/A 30.06 1018 0.75 1.207005 0.08 2.032
3:53 am 03:53 Mostly Cloudy with Light Snow 20 -6.7 18 -7.8 92 92 SE 3 6 30.03 1017 0.75 1.207005 0.09 2.286
4:10 am 04:10 Cloudy with Light Snow 20 -6.7 19 -7.2 96 96 N N/A 30.06 1018 1 1.60934 0.02 0.508
4:21 am 04:21 Cloudy with Light Snow 21 -6.1 19 -7.2 92 92 N N/A 30.06 1018 0.75 1.207005 0.03 0.762
4:29 am 04:29 Cloudy with Light Snow 21 -6.1 19 -7.2 92 92 VRB 3 6 30.03 1017 0.75 1.207005 0.04 1.016
4:41 am 04:41 Cloudy with Light Snow 22 -5.6 20 -6.7 92 92 N N/A 30.06 1018 0.75 1.207005 0.05 1.27
4:47 am 04:47 Cloudy with Light Snow 21 -6 19 -7 93 93 VRB 3 6 30.06 1018 1 1.60934 0.06 1.524
4:53 am 04:53 Mostly Cloudy with Light Snow 22 -5.6 20 -6.7 92 92 N N/A 30.01 1016 1 1.60934 0.06 1.524
5:24 am 05:24 Mostly Cloudy with Light Snow 22 -5.6 20 -6.7 92 92 ESE 3 6 30.03 1017 0.75 1.207005 0.03 0.762
5:29 am 05:29 Mostly Cloudy with Light Snow 22 -5.6 20 -6.7 92 92 ESE 3 6 30.03 1017 1 1.60934 0.04 1.016
5:53 am 05:53 Mostly Cloudy with Light Snow 22 -5.6 20 -6.7 92 92 E 3 6 29.99 1016 0.75 1.207005 0.06 1.524
6:11 am 06:11 Mostly Cloudy with Snow 22 -5.6 21 -6.1 96 96 E 5 7 30.03 1017 0.5 0.80467 0.04 1.016
6:53 am 06:53 Mostly Cloudy with Light Snow 24 -4.4 22 -5.6 91 91 N N/A 29.99 1016 0.75 1.207005 0.11 2.794
7:11 am 07:11 Cloudy with Light Snow 24 -4.4 22 -5.6 91 91 ENE 3 6 30.03 1017 1 1.60934 0.02 0.508
7:21 am 07:21 Cloudy with Light Snow 25 -3.9 23 -5 92 92 N N/A 30 1016 2 3.21868 0.02 0.508
7:35 am 07:35 Cloudy with Light Snow 25 -3.9 23 -5 92 92 N N/A 30.03 1017 3 4.82802 0.02 0.508
7:42 am 07:42 Cloudy with Light Snow 25 -3.9 23 -5 92 92 N N/A 30 1016 2 3.21868 0.02 0.508
7:47 am 07:47 Cloudy with Light Snow 25 -4 23 -5 93 93 N N/A 30 1016 1.5 2.41401 0.02 0.508
7:53 am 07:53 Cloudy with Light Snow 25 -3.9 23 -5 92 92 N N/A 29.98 1015 1 1.60934 0.03 0.762
8:01 am 08:01 Cloudy with Snow 25 -3.9 23 -5 92 92 NNW 3 6 30.03 1017 0.5 0.80467 0.01 0.254
8:20 am 08:20 Cloudy with Light Snow 25 -3.9 23 -5 92 92 N N/A 30.03 1017 0.75 1.207005 0.03 0.762
8:27 am 08:27 Cloudy with Light Snow 25 -3.9 23 -5 92 92 N 3 6 30.03 1017 1.25 2.011675 0.03 0.762
8:53 am 08:53 Cloudy with Light Snow 25 -3.9 22 -5.6 88 88 N N/A 29.98 1015 1.25 2.011675 0.03 0.762
9:09 am 09:09 Cloudy with Light Snow 26 -3.3 23 -5 88 88 N N/A 30.03 1017 2 3.21868 N/A
9:19 am 09:19 Cloudy with Light Snow 26 -3.3 23 -5 88 88 N N/A 30.03 1017 1.5 2.41401 N/A
9:41 am 09:41 Cloudy with Light Snow 26 -3.3 24 -4.4 92 92 N N/A 30 1016 1 1.60934 0.01 0.254
9:53 am 09:53 Cloudy with Light Snow 26 -3.3 24 -4.4 92 92 N N/A 29.97 1015 1 1.60934 0.01 0.254
10:15 am 10:15 Cloudy with Light Snow 28 -2.2 25 -3.9 88 88 N N/A 30 1016 1.25 2.011675 N/A
10:28 am 10:28 Cloudy with Light Snow 28 -2.2 25 -3.9 88 88 N N/A 30 1016 0.75 1.207005 0.01 0.254
10:33 am 10:33 Cloudy with Light Snow 28 -2.2 25 -3.9 88 88 E 3 6 30 1016 1 1.60934 0.01 0.254
10:53 am 10:53 Cloudy with Light Snow 29 -1.7 26 -3.3 89 89 N N/A 29.96 1015 1.25 2.011675 0.01 0.254
11:04 am 11:04 Cloudy with Mist and Fog 29 -1.7 27 -2.8 92 92 N N/A 30 1016 1.5 2.41401 N/A
11:35 am 11:35 Cloudy with Light Snow 32 undefined 30 -1.1 92 92 N N/A 29.97 1015 0.75 1.207005 0.01 0.254
11:53 am 11:53 Cloudy with Light Snow 33 0.6 31 -0.6 92 92 N N/A 29.94 1014 1 1.60934 0.02 0.508
12:00 pm 12:00 Cloudy with Light Snow 34 1.1 32 undefined 92 92 N N/A 29.97 1015 2 3.21868 N/A
12:20 pm 12:20 Cloudy with Light Snow 33 0.6 32 undefined 96 96 N N/A 29.94 1014 1.75 2.816345 N/A
12:30 pm 12:30 Cloudy with Light Snow 34 1.1 32 undefined 92 92 N N/A 29.94 1014 2.5 4.02335 N/A
12:53 pm 12:53 Cloudy with Light Snow 34 1.1 32 undefined 92 92 N N/A 29.93 1014 2 3.21868 0.01 0.254
1:18 pm 13:18 Cloudy with Light Snow 34 1.1 32 undefined 92 92 N N/A 29.94 1014 1.5 2.41401 0.01 0.254
1:31 pm 13:31 Cloudy with Snow 33 0.6 32 undefined 96 96 N N/A 29.94 1014 0.5 0.80467 0.02 0.508
1:53 pm 13:53 Mostly Cloudy with Snow 33 0.6 32 undefined 96 96 N N/A 29.93 1013 0.25 0.402335 0.05 1.27
2:16 pm 14:16 Mostly Cloudy with Heavy Snow 33 0.6 32 undefined 96 96 N N/A 29.94 1014 0.25 0.402335 0.04 1.016
2:53 pm 14:53 Mostly Cloudy with Snow 33 0.6 32 undefined 96 96 N N/A 29.92 1013 0.5 0.80467 0.09 2.286
3:18 pm 15:18 Mostly Cloudy with Snow 33 0.6 32 undefined 96 96 ESE 3 6 29.94 1014 0.5 0.80467 0.02 0.508
3:26 pm 15:26 Mostly Cloudy with Snow 33 0.6 32 undefined 96 96 N N/A 29.94 1014 0.5 0.80467 0.03 0.762
3:33 pm 15:33 Cloudy with Light Snow 33 0.6 32 undefined 96 96 N N/A 29.94 1014 0.5 0.80467 0.03 0.762
3:53 pm 15:53 Cloudy with Light Snow 33 0.6 32 undefined 96 96 E 5 7 29.92 1013 0.75 1.207005 0.04 1.016
4:01 pm 16:01 Cloudy with Light Snow 33 0.6 32 undefined 96 96 N N/A 29.94 1014 1.25 2.011675 N/A
4:14 pm 16:14 Cloudy with Mist and Fog 34 1.1 33 0.6 97 97 N N/A 29.94 1014 2 3.21868 N/A
4:39 pm 16:39 Cloudy with Mist and Fog 34 1.1 33 0.6 97 97 N N/A 29.94 1014 2.5 4.02335 N/A
4:53 pm 16:53 Cloudy with Mist and Fog 34 1.1 33 0.6 97 97 NNW 3 6 29.95 1014 2.5 4.02335 N/A
5:53 pm 17:53 Cloudy with Mist and Fog 34 1.1 33 0.6 97 97 N N/A 29.97 1015 4 6.43736 N/A
6:01 pm 18:01 Cloudy with Mist and Fog 34 1.1 33 0.6 97 97 N N/A 30 1016 4 6.43736 N/A
6:18 pm 18:18 Cloudy with Mist and Fog 34 1.1 32 undefined 92 92 N N/A 30 1016 2 3.21868 N/A
6:49 pm 18:49 Cloudy with Mist and Fog 34 1 32 undefined 93 93 NW 5 7 30.06 1018 4 6.43736 N/A
6:53 pm 18:53 Cloudy with Mist and Fog 33 0.6 32 undefined 96 96 NNW 5 7 30.02 1017 4 6.43736 N/A
7:10 pm 19:10 Cloudy with Mist and Fog 33 0.6 31 -0.6 92 92 NNW 8 13 30.06 1018 6 9.65604 N/A
7:34 pm 19:34 Cloudy 33 0.6 31 -0.6 92 92 N 7 11 30.09 1019 7 11.26538 N/A
7:53 pm 19:53 Mostly Cloudy 32 undefined 29 -1.7 88 88 N 9 15 30.06 1018 7 11.26538 N/A
8:02 pm 20:02 Partly Cloudy 31 -0.6 28 -2.2 89 89 NNW 9 15 30.09 1019 8 12.87472 N/A
8:53 pm 20:53 Clear 28 -2.2 25 -3.9 88 88 N 7 11 30.09 1019 7 11.26538 N/A
9:53 pm 21:53 Clear with Mist and Fog 26 -3.3 23 -5 88 88 NNW 8 13 30.12 1020 6 9.65604 N/A
10:53 pm 22:53 Clear with Mist and Fog 24 -4.4 21 -6.1 88 88 N 7 11 30.14 1021 6 9.65604 N/A
11:53 pm 23:53 Clear with Mist and Fog 22 -5.6 20 -6.7 92 92 NNW 3 6 30.17 1022 5 8.0467 N/A

Powered by AerisWeather